Vertical_Velocity
-2 -2 1 0 -1 3 2 -6 3 -1 -0 -3 -0 -2 -4 5 2 1 3 -3 -2 -3 -1 -3 -1 -2 1 2 -0 2 1 1 2 -1 -3 -1 -3 -1 0 1 2 1 -1 -1 -0 1 1 1 2
1 -2 -2 -3 2 1 -2 -2 3 -3 1 -3 -1 3 1 -0 -1 4 -0 -2 -0 -1 -0 0 -3 -2 -3 -3 -0 1 -1 -2 -3 -2 -0 -0 -0 -0 -2 -2 -1 -0 -1 -1 -1 -1 -1 0 1
-0 -1 -3 -4 0 1 4 1 1 -1 1 -0 2 1 -3 3 5 -1 -1 -4 -0 0 -1 -1 -1 -2 -3 -3 -1 -3 -1 0 -0 -1 -1 -1 -1 -2 -1 -1 -2 -2 -1 -2 -3 -2 -0 2 3
-0 -2 0 -0 -1 1 -0 3 -4 -0 3 -0 2 -2 -0 1 -0 -2 1 0 1 1 1 1 1 1 2 3 1 -1 0 0 -0 2 1 0 -1 1 1 0 -0 -0 -3 -2 0 1 -0 0 2
-4 2 3 -1 -6 -3 0 3 6 -5 -4 2 2 0 -2 1 8 -1 -0 -2 -1 2 2 1 1 0 -0 1 1 1 -0 -1 -0 -1 -1 0 1 -1 -0 -0 -0 1 -1 -0 1 -1 -2 -2 3
-1 -0 -1 -2 -4 0 1 1 2 0 -3 6 5 1 5 4 2 3 -0 -1 -1 -1 -3 -1 1 0 0 -1 0 1 1 1 -1 -0 -0 -1 -1 2 1 -0 -0 0 1 1 0 -2 -1 -3 2
-2 -1 -4 -7 1 1 0 1 -1 -4 5 -1 1 0 0 1 7 5 2 0 0 3 3 2 2 2 2 1 -1 -1 0 0 1 1 -1 -1 -0 -1 1 -0 -0 0 -2 -3 -1 1 -1 -2 -3
1 -3 -4 -3 -6 1 -1 -5 1 -3 -3 -7 0 -3 4 1 0 2 -1 1 2 1 1 0 -1 -2 -3 1 3 3 -2 -2 -1 0 1 1 1 1 -0 1 1 1 -0 -0 1 1 -1 -2 -2
0 -3 -7 -0 -1 -3 -1 -0 5 1 -6 -4 -6 1 4 6 6 5 5 3 2 2 1 1 1 3 3 -1 0 1 2 2 1 -1 1 1 0 -1 2 2 2 1 0 1 2 1 1 -1 -2
3 1 -7 -4 -1 -5 0 -1 1 2 -3 -5 1 -5 -1 4 1 3 7 8 5 4 -0 4 -4 -1 1 4 1 1 2 1 -1 -1 2 2 3 -1 0 0 -0 -0 -1 -0 1 -0 1 1 -1
-0 -2 -3 -2 -6 -0 -2 -1 -5 2 1 2 -3 -1 -7 6 -0 2 -4 3 4 5 6 9 11 -3 6 -1 4 -7 -4 3 -2 2 -2 -6 4 -1 -2 -0 -1 -2 -2 -1 0 0 1 -1 -0
3 -1 -2 1 3 -1 -2 5 3 -1 -5 -1 3 -1 -3 -8 2 0 5 -4 -3 -4 0 -1 1 7 1 -3 6 -3 0 3 -1 -9 -1 -2 5 -1 -1 0 -0 -2 -0 -1 0 1 -0 -0 -0
6 1 -4 3 2 -2 -5 -2 1 -1 -9 -6 -1 -3 -5 -3 -4 -2 -0 2 -1 3 0 3 7 2 -0 10 9 8 3 -2 1 2 1 -3 -3 2 1 -3 -2 -3 -0 -1 -3 -3 -1 -1 -2
-3 2 3 -2 -3 -0 -5 -7 -5 5 -4 -7 -7 -4 2 -1 -1 -4 -1 -3 -5 -4 2 1 -4 4 4 5 6 8 4 9 9 4 4 5 0 0 6 -1 -4 -2 4 -0 -1 2 1 -3 -2
-0 0 -3 2 3 4 -6 5 1 -5 -6 -3 -0 -4 0 -1 -3 -5 -3 -6 -1 -2 -4 -0 4 -8 -6 -0 5 5 4 6 4 1 4 6 5 3 2 2 1 -0 -1 -2 -1 -0 1 1 -1
2 -2 1 1 5 3 0 8 0 -3 -2 -4 -3 -0 4 4 5 1 -1 -3 -4 -2 -3 3 -2 -5 -0 0 0 -0 0 1 1 3 2 3 5 4 2 2 1 1 0 3 1 1 0 0 -0
-1 -6 1 -3 0 4 -1 9 4 -4 -0 -3 -4 -3 -4 1 4 6 6 1 0 -5 -3 -2 -2 -0 -3 -3 -4 -5 -2 2 5 2 -0 -2 -3 -1 1 1 -0 -1 4 1 -0 4 3 7 8
2 1 -1 0 -2 -2 -0 -0 -1 9 6 6 1 0 -1 -4 0 5 2 3 -4 1 1 0 3 -2 -3 0 -1 0 -2 -4 -7 -6 -2 -1 0 3 3 3 5 3 5 5 2 1 2 -0 1
-0 -2 -5 1 7 1 2 7 4 4 2 3 6 6 6 0 -2 0 -1 -2 3 1 -1 4 -1 -5 -1 -2 -2 1 -0 -0 3 2 1 0 -3 -5 -5 -2 -0 -3 -3 -2 -5 -1 5 8 -3
-5 -1 6 4 0 3 6 5 6 -1 4 4 -1 0 -4 1 0 1 5 3 2 3 2 2 -1 -0 -1 -3 -6 -6 -3 -1 -2 -1 -2 -1 -2 -3 -2 -4 -1 -3 -1 0 3 -5 -2 1 4
-2 -3 -1 -2 2 1 -2 -3 8 3 2 -3 3 2 5 3 6 5 3 6 6 3 4 5 2 1 2 -0 -1 1 3 -0 -1 0 5 2 1 1 4 2 3 7 0 3 1 1 -4 1 23
8 -5 -2 1 -5 -7 5 -4 6 1 -2 3 5 3 6 7 7 7 5 6 3 4 3 1 -1 2 -2 -3 3 -0 -2 2 2 2 3 5 0 -1 2 -0 -2 5 2 4 2 4 3 -7 -2
7 1 -3 -0 -1 2 4 -7 8 -7 7 4 -2 2 -2 -2 5 6 7 7 3 8 2 -2 2 -3 -0 -1 1 1 0 1 4 4 3 2 0 -8 -5 -5 -0 -4 -5 -2 4 5 1 -2 -6
3 3 -0 -2 -4 -2 -3 -3 16 -0 -2 3 -4 0 1 1 4 4 12 11 11 6 4 4 -1 -1 -0 -2 -2 -3 -0 1 -0 -6 -1 3 7 9 -2 -3 0 -2 -0 -0 2 0 0 5 2
-3 6 -1 -6 -2 -3 -4 -7 7 1 -7 -6 1 -0 -1 3 5 5 10 10 7 7 8 3 3 1 -3 -0 3 -2 1 -2 -4 -9 -5 -5 -3 -4 9 5 0 -3 -6 -6 -8 -7 -8 -4 1
-0 6 8 -7 -6 -3 3 -3 2 0 4 7 4 -5 -1 5 4 5 3 0 -2 5 9 4 -7 -4 -0 -4 -4 -4 -5 3 2 4 3 -3 9 1 -7 -8 -6 -7 -7 -3 -3 -3 -4 -3 -4
9 2 4 -6 1 -6 4 -2 -1 3 -2 -3 -3 0 4 2 -2 -2 -0 -1 1 4 -3 -8 -4 -4 -2 2 1 -0 3 2 -2 -5 -1 -2 -4 -5 -1 -4 -7 -7 -6 -4 -4 -6 -7 -3 -9
9 6 4 2 -11 -14 8 0 -9 -4 -5 -13 -6 -5 -2 -2 3 -4 -5 -3 2 5 3 -4 -4 -2 0 -2 1 -0 -3 1 1 -3 -4 -7 -7 -9 -8 -9 -8 -7 -9 -6 -6 -5 -4 -5 -9
9 2 -2 1 1 -13 -6 6 -2 3 -7 -4 -3 -3 -2 -1 -1 1 3 4 -1 7 1 -7 -6 -1 -3 1 -3 -0 -0 -2 -1 -3 -7 -10 -11 -8 -6 -4 -8 -5 -5 -7 -7 -6 -7 -6 -10
-6 2 3 -1 -3 -10 -12 6 2 3 -8 -8 -1 -1 1 5 -1 3 16 -1 3 3 -0 -4 -1 -2 1 -1 -2 -3 -2 -4 -6 -8 -8 -2 -5 -5 -4 -6 -4 -5 -6 -5 -5 -3 -5 -7 -6
Height
5869 5869 5870 5871 5873 5869 5869 5872 5873 5873 5874 5872 5872 5875 5878 5878 5878 5879 5875 5873 5873 5874 5874 5872 5872 5872 5872 5873 5874 5875 5875 5876 5875 5876 5876 5876 5876 5877 5877 5877 5878 5877 5876 5875 5874 5874 5873 5873 5873
5870 5869 5869 5869 5869 5869 5870 5871 5873 5870 5872 5874 5874 5875 5877 5876 5876 5875 5874 5872 5872 5873 5873 5873 5873 5873 5873 5874 5875 5875 5875 5876 5876 5876 5876 5875 5875 5875 5875 5876 5875 5875 5874 5873 5872 5871 5870 5870 5871
5869 5869 5870 5868 5867 5867 5869 5870 5871 5869 5871 5873 5876 5877 5875 5874 5873 5872 5871 5870 5871 5871 5872 5872 5872 5873 5873 5874 5874 5874 5874 5873 5874 5874 5874 5873 5873 5873 5873 5873 5873 5873 5872 5871 5869 5868 5868 5868 5868
5870 5870 5870 5868 5867 5868 5868 5870 5870 5870 5869 5870 5873 5874 5873 5872 5873 5872 5870 5869 5870 5870 5871 5871 5872 5872 5872 5872 5872 5873 5873 5873 5873 5873 5872 5872 5872 5871 5871 5871 5871 5871 5870 5869 5867 5866 5866 5865 5865
5870 5870 5869 5867 5866 5865 5866 5869 5870 5868 5869 5869 5870 5870 5869 5870 5872 5869 5869 5867 5867 5868 5868 5869 5869 5870 5870 5871 5871 5871 5871 5872 5871 5871 5870 5869 5869 5869 5869 5868 5868 5867 5866 5865 5865 5864 5862 5861 5861
5868 5869 5867 5866 5865 5865 5867 5868 5869 5867 5867 5868 5866 5865 5867 5868 5868 5867 5865 5866 5865 5866 5867 5869 5869 5870 5870 5870 5870 5870 5869 5869 5869 5868 5868 5867 5866 5866 5865 5865 5865 5864 5863 5863 5862 5860 5859 5858 5859
5867 5867 5866 5864 5865 5864 5864 5865 5864 5862 5864 5865 5863 5862 5864 5864 5866 5867 5866 5865 5866 5867 5867 5868 5868 5868 5869 5869 5868 5868 5867 5866 5866 5865 5865 5864 5864 5863 5861 5861 5861 5860 5860 5859 5857 5857 5856 5855 5854
5866 5866 5865 5864 5864 5863 5862 5861 5861 5859 5858 5858 5860 5860 5860 5861 5864 5866 5864 5864 5864 5865 5865 5865 5865 5865 5865 5865 5864 5864 5863 5862 5861 5860 5860 5859 5859 5859 5858 5857 5857 5856 5856 5854 5853 5853 5852 5851 5849
5864 5863 5862 5863 5864 5863 5861 5860 5859 5857 5856 5853 5857 5857 5857 5859 5861 5863 5862 5861 5862 5864 5863 5862 5862 5861 5861 5860 5859 5859 5857 5857 5856 5855 5854 5854 5853 5852 5853 5852 5852 5851 5850 5849 5848 5848 5847 5846 5845
5861 5861 5858 5860 5860 5861 5860 5858 5857 5856 5855 5853 5853 5856 5856 5856 5857 5858 5858 5858 5859 5858 5858 5857 5856 5857 5857 5856 5855 5853 5852 5851 5850 5849 5848 5847 5847 5846 5846 5846 5846 5846 5844 5843 5842 5842 5842 5841 5839
5860 5857 5856 5858 5857 5858 5858 5857 5856 5855 5854 5853 5852 5852 5854 5852 5853 5854 5853 5853 5853 5853 5852 5850 5849 5851 5852 5849 5849 5847 5846 5845 5844 5843 5843 5842 5841 5840 5839 5839 5839 5839 5838 5838 5837 5836 5836 5836 5835
5858 5856 5854 5853 5854 5855 5855 5854 5853 5851 5851 5848 5848 5847 5849 5851 5849 5848 5850 5848 5846 5845 5845 5846 5844 5842 5845 5843 5842 5840 5839 5840 5839 5837 5837 5836 5835 5834 5832 5832 5831 5832 5832 5833 5831 5830 5829 5829 5829
5852 5850 5851 5850 5849 5849 5849 5850 5849 5846 5845 5843 5842 5842 5843 5845 5846 5846 5846 5843 5842 5842 5840 5839 5839 5837 5838 5839 5835 5834 5834 5833 5831 5830 5830 5830 5828 5827 5826 5826 5825 5824 5824 5824 5825 5824 5823 5822 5821
5850 5847 5845 5845 5844 5842 5843 5844 5844 5841 5838 5836 5837 5837 5841 5841 5841 5841 5840 5838 5837 5835 5831 5831 5831 5830 5829 5829 5829 5827 5827 5826 5825 5824 5822 5822 5820 5819 5818 5817 5816 5816 5814 5815 5815 5815 5814 5813 5810
5847 5846 5843 5839 5839 5837 5837 5839 5839 5833 5829 5829 5831 5834 5834 5836 5838 5837 5834 5832 5831 5828 5826 5826 5826 5825 5823 5822 5821 5820 5817 5816 5815 5815 5814 5814 5811 5810 5809 5807 5806 5806 5806 5805 5805 5804 5803 5803 5802
5843 5841 5839 5838 5837 5833 5832 5836 5832 5825 5825 5825 5825 5825 5828 5829 5830 5831 5830 5829 5826 5824 5822 5820 5818 5816 5815 5813 5811 5811 5809 5808 5806 5804 5804 5803 5802 5801 5799 5798 5797 5796 5795 5794 5794 5793 5792 5791 5790
5836 5834 5835 5832 5831 5828 5827 5829 5824 5821 5821 5820 5821 5820 5821 5823 5824 5824 5824 5823 5820 5818 5816 5815 5813 5811 5809 5807 5806 5804 5802 5800 5798 5797 5795 5793 5792 5790 5790 5789 5787 5786 5784 5782 5781 5780 5778 5777 5776
5831 5831 5829 5828 5823 5823 5822 5821 5820 5816 5818 5816 5815 5816 5815 5815 5816 5816 5816 5816 5814 5812 5812 5810 5807 5805 5803 5800 5797 5796 5794 5792 5790 5788 5786 5785 5783 5781 5779 5777 5775 5773 5772 5770 5768 5767 5765 5763 5761
5825 5824 5825 5823 5819 5818 5816 5817 5815 5808 5809 5810 5811 5811 5809 5808 5808 5807 5807 5808 5808 5807 5805 5803 5801 5799 5796 5793 5790 5787 5785 5784 5781 5779 5775 5772 5770 5768 5765 5763 5762 5761 5759 5756 5753 5751 5748 5746 5743
5821 5819 5818 5819 5815 5812 5811 5811 5811 5804 5802 5799 5799 5798 5800 5801 5800 5800 5799 5799 5799 5799 5796 5793 5790 5788 5786 5784 5780 5779 5778 5774 5772 5768 5765 5761 5757 5753 5750 5748 5746 5744 5741 5739 5737 5735 5733 5732 5728
5816 5813 5811 5810 5809 5805 5802 5801 5804 5801 5797 5795 5792 5789 5789 5792 5794 5794 5793 5792 5792 5790 5786 5782 5780 5777 5775 5770 5768 5767 5765 5763 5760 5757 5754 5751 5747 5744 5740 5736 5732 5729 5726 5724 5720 5716 5713 5712 5711
5811 5805 5805 5802 5801 5799 5797 5786 5795 5795 5794 5792 5790 5787 5784 5783 5783 5783 5782 5782 5781 5778 5775 5772 5769 5766 5762 5759 5756 5755 5752 5750 5747 5744 5740 5736 5731 5727 5723 5719 5715 5712 5708 5704 5700 5695 5691 5687 5686
5807 5800 5798 5796 5793 5791 5796 5784 5785 5788 5785 5783 5780 5778 5776 5774 5774 5772 5770 5769 5769 5767 5764 5761 5758 5754 5750 5746 5743 5740 5736 5733 5729 5726 5721 5717 5711 5707 5704 5700 5696 5691 5686 5681 5677 5671 5667 5661 5657
5797 5794 5790 5787 5785 5783 5784 5781 5783 5776 5776 5774 5770 5768 5766 5765 5765 5763 5761 5759 5756 5754 5752 5749 5745 5741 5736 5731 5728 5726 5721 5716 5713 5709 5705 5699 5694 5689 5683 5678 5674 5668 5661 5654 5647 5640 5634 5629 5623
5791 5788 5782 5778 5777 5775 5775 5770 5772 5771 5767 5764 5761 5759 5758 5757 5755 5754 5750 5746 5743 5742 5739 5736 5731 5727 5721 5718 5716 5712 5709 5705 5700 5696 5691 5684 5674 5667 5659 5651 5643 5637 5630 5623 5617 5609 5601 5594 5588
5782 5781 5776 5768 5766 5764 5766 5761 5763 5765 5762 5758 5752 5748 5747 5745 5742 5740 5737 5734 5732 5730 5725 5720 5716 5712 5709 5706 5702 5697 5692 5687 5680 5674 5667 5660 5653 5644 5637 5631 5624 5615 5607 5598 5589 5582 5573 5567 5560
5773 5770 5768 5763 5759 5754 5751 5749 5752 5755 5750 5745 5741 5737 5734 5731 5729 5726 5724 5722 5720 5718 5712 5706 5701 5697 5693 5689 5684 5679 5671 5665 5660 5655 5648 5640 5634 5627 5618 5609 5601 5593 5587 5580 5572 5563 5558 5552 5546
5766 5764 5760 5756 5750 5743 5741 5737 5735 5744 5736 5732 5729 5724 5721 5718 5717 5714 5710 5708 5707 5704 5697 5691 5685 5682 5678 5673 5668 5662 5656 5650 5642 5636 5628 5621 5614 5608 5600 5592 5586 5578 5570 5564 5558 5553 5547 5541 5533
5755 5752 5751 5748 5744 5736 5729 5726 5731 5731 5723 5718 5713 5711 5708 5704 5702 5701 5700 5697 5694 5690 5683 5676 5671 5669 5664 5659 5652 5646 5639 5632 5624 5616 5609 5603 5596 5589 5582 5577 5570 5563 5558 5553 5549 5544 5539 5532 5524
5745 5743 5740 5737 5734 5730 5726 5709 5725 5717 5710 5703 5704 5697 5692 5691 5689 5688 5687 5683 5681 5676 5669 5663 5657 5652 5647 5641 5635 5628 5619 5611 5604 5596 5591 5584 5576 5572 5568 5561 5556 5553 5549 5545 5540 5536 5530 5524 5517